Location: Chagrin Falls Park
(41.4139°N, 81.3865°W)
Time: 03:56:45
(UTC+00:00)

STARLINK-2688 - Pass Details

Date: 31 July 2021
Orbit: 546 x 548 km, 53.1° (Epoch: 21 September)

Event Time Altitude Azimuth Distance (km) Brightness Sun altitude
Rises 02:40:58 0° 299° (WNW) 2,720 8.5 -18.4°
Reaches altitude 10° 02:43:26 10° 287° (WNW) 1,822 7.1 -18.7°
Maximum altitude 02:46:57 27° 229° (SW) 1,061 5.0 -19.2°
Enters shadow 02:47:58 24° 204° (SSW) 1,142 5.0 -19.3°
